Terminal Aerodrome Forecast
Issued by NWS

Home | Current Version | Previous Version | Text Only | Print | Product List | Glossary On
Versions: 1 2 3 4 5 6 7 8 9 10 11 12 13 14 15 16 17 18 19 20 21 22 23 24 25 26 27 28 29 30 31
000
FTUS44 KFWD 210500 CCA
TAFFTW
TAF COR
KFTW 210541Z 2106/2212 07007KT P6SM -RA BKN015 OVC060
      TEMPO 2106/2108 4SM -RA BKN008
     FM210900 11007KT P6SM VCSH BKN015
     FM211700 19013KT P6SM SCT030 SCT100 SCT250
     FM212000 21008KT P6SM VCTS BKN050CB
     FM220200 34008KT P6SM SCT060 BKN200=

USA.gov is the U.S. government's official web portal to all federal, state and local government web resources and services.